GW3985 Weather Reports


time (UTC)temp
C
wind
direction
speed
KPH
gust
KPH
rain 1hr
cm
rain 24hr
cm
rain mn
cm
humidity
%
barometer
mb
20260905230017 33 141 0.0 1.6 0.00 0.00 0.00 24 1022.5
20260905225014 32 0.0 0.0 0.00 0.00 0.00 25 1022.5
20260905224015 31 155 0.0 1.6 0.00 0.00 0.00 27 1022.5
20260905223015 30 0.0 0.0 0.00 0.00 0.00 29 1022.6
20260905222036 31 228 0.0 1.6 0.00 0.00 0.00 28 1022.7
20260905221016 31 222 0.0 1.6 0.00 0.00 0.00 27 1022.7
20260905220117 31 0.0 0.0 0.00 0.00 0.00 27 1022.7
20260905215017 32 129 0.0 3.2 0.00 0.00 0.00 26 1022.8
20260905214015 33 98 1.6 3.2 0.00 0.00 0.00 25 1022.9
20260905213035 32 274 0.0 1.6 0.00 0.00 0.00 27 1022.9
20260905212017 31 144 0.0 1.6 0.00 0.00 0.00 28 1023.1
20260905211016 31 146 0.0 1.6 0.00 0.00 0.00 27 1023.2
20260905210016 32 156 0.0 1.6 0.00 0.00 0.00 26 1023.2
20260905205036 33 329 0.0 3.2 0.00 0.00 0.00 26 1023.3
20260905204037 33 137 0.0 4.8 0.00 0.00 0.00 26 1023.4
20260905203015 33 122 1.6 6.4 0.00 0.00 0.00 26 1023.6
20260905202015 33 105 1.6 4.8 0.00 0.00 0.00 26 1023.7
20260905201015 32 186 1.6 3.2 0.00 0.00 0.00 25 1023.7
20260905200036 33 105 1.6 4.8 0.00 0.00 0.00 26 1023.8
20260905195016 33 211 0.0 3.2 0.00 0.00 0.00 26 1024.0
20260905194017 32 50 1.6 6.4 0.00 0.00 0.00 26 1024.1
20260905193017 32 102 1.6 3.2 0.00 0.00 0.00 26 1024.1
20260905192015 32 250 0.0 3.2 0.00 0.00 0.00 27 1024.2
20260905191016 32 356 0.0 6.4 0.00 0.00 0.00 28 1024.3
20260905190016 31 327 1.6 4.8 0.00 0.00 0.00 28 1024.3
20260905185016 31 270 0.0 1.6 0.00 0.00 0.00 29 1024.5
20260905184016 31 280 1.6 4.8 0.00 0.00 0.00 29 1024.5
20260905183017 30 273 1.6 4.8 0.00 0.00 0.00 30 1024.7
20260905182017 30 326 1.6 4.8 0.00 0.00 0.00 31 1024.8
20260905181015 29 291 0.0 4.8 0.00 0.00 0.00 31 1025.0
20260905180015 29 245 0.0 4.8 0.00 0.00 0.00 32 1025.1
20260905175015 29 309 1.6 4.8 0.00 0.00 0.00 33 1025.2
20260905174036 28 114 0.0 1.6 0.00 0.00 0.00 33 1025.2
20260905173036 27 278 0.0 1.6 0.00 0.00 0.00 35 1025.3
20260905172017 28 308 0.0 3.2 0.00 0.00 0.00 34 1025.2
20260905171014 27 276 0.0 1.6 0.00 0.00 0.00 35 1025.1
20260905170015 27 263 0.0 1.6 0.00 0.00 0.00 36 1025.0
20260905165015 26 139 0.0 1.6 0.00 0.00 0.00 39 1025.1
20260905164016 26 0.0 0.0 0.00 0.00 0.00 41 1025.1
20260905163016 26 0.0 0.0 0.00 0.00 0.00 39 1025.1
20260905162017 25 0.0 0.0 0.00 0.00 0.00 42 1025.0
20260905161017 25 0.0 0.0 0.00 0.00 0.00 42 1024.9
20260905160015 25 0.0 0.0 0.00 0.00 0.00 42 1024.8
20260905155015 24 0.0 0.0 0.00 0.00 0.00 43 1024.8
20260905154015 23 0.0 0.0 0.00 0.00 0.00 44 1024.8
20260905153016 23 0.0 0.0 0.00 0.00 0.00 46 1024.9
20260905152016 23 287 0.0 1.6 0.00 0.00 0.00 48 1024.9
20260905151016 22 0.0 0.0 0.00 0.00 0.00 50 1024.9
20260905150017 22 135 0.0 1.6 0.00 0.00 0.00 52 1025.0
20260905145015 21 133 0.0 1.6 0.00 0.00 0.00 53 1025.0
20260905144035 21 131 0.0 1.6 0.00 0.00 0.00 55 1025.0
20260905143015 20 131 0.0 1.6 0.00 0.00 0.00 56 1024.9
20260905142016 20 129 0.0 1.6 0.00 0.00 0.00 58 1024.8
20260905141016 19 167 0.0 1.6 0.00 0.00 0.00 60 1024.8
20260905140037 18 148 0.0 1.6 0.00 0.00 0.00 61 1024.7
20260905135057 18 139 0.0 3.2 0.00 0.00 0.00 63 1024.6
20260905134035 18 0.0 0.0 0.00 0.00 0.00 65 1024.5
20260905133015 17 136 0.0 1.6 0.00 0.00 0.00 66 1024.5
20260905132016 17 136 0.0 3.2 0.00 0.00 0.00 69 1024.5
20260905131016 16 139 0.0 1.6 0.00 0.00 0.00 70 1024.4
20260905130016 16 0.0 0.0 0.00 0.00 0.00 70 1024.2
20260905125017 16 139 0.0 1.6 0.00 0.00 0.00 70 1024.0
20260905124017 16 139 0.0 1.6 0.00 0.00 0.00 71 1023.8
20260905123035 16 139 0.0 3.2 0.00 0.00 0.00 72 1023.7
20260905122017 16 140 1.6 4.8 0.00 0.00 0.00 73 1023.7
20260905121016 16 135 0.0 1.6 0.00 0.00 0.00 75 1023.7
20260905120016 16 0.0 0.0 0.00 0.00 0.00 74 1023.7
20260905115016 17 0.0 0.0 0.00 0.00 0.00 73 1023.7
20260905114037 17 135 0.0 1.6 0.00 0.00 0.00 71 1023.5
20260905113015 17 0.0 0.0 0.00 0.00 0.00 68 1023.5
20260905112015 18 139 1.6 6.4 0.00 0.00 0.00 68 1023.5
20260905111016 18 142 3.2 8.0 0.00 0.00 0.00 67 1023.5
20260905110036 18 142 3.2 9.7 0.00 0.00 0.00 66 1023.4
20260905105016 18 141 1.6 6.4 0.00 0.00 0.00 66 1023.3
20260905104037 18 146 1.6 3.2 0.00 0.00 0.00 66 1023.3
20260905103017 18 143 1.6 3.2 0.00 0.00 0.00 65 1023.3
20260905102035 18 149 0.0 3.2 0.00 0.00 0.00 64 1023.3
20260905101035 19 257 0.0 1.6 0.00 0.00 0.00 63 1023.3
20260905100016 20 148 1.6 6.4 0.00 0.00 0.00 63 1023.2
20260905095016 20 140 1.6 4.8 0.00 0.00 0.00 62 1023.2
20260905094037 20 143 1.6 6.4 0.00 0.00 0.00 62 1023.2
20260905093016 20 140 1.6 8.0 0.00 0.00 0.00 61 1023.2
20260905092017 20 141 1.6 4.8 0.00 0.00 0.00 60 1023.1
20260905091035 20 142 1.6 6.4 0.00 0.00 0.00 60 1023.1
20260905090015 20 142 3.2 8.0 0.00 0.00 0.00 60 1023.1
20260905085015 20 136 1.6 6.4 0.00 0.00 0.00 60 1023.2
20260905084016 20 140 3.2 6.4 0.00 0.00 0.00 59 1023.2
20260905083037 20 139 1.6 6.4 0.00 0.00 0.00 59 1023.2
20260905082017 20 143 3.2 6.4 0.00 0.00 0.00 59 1023.2
20260905081017 20 141 1.6 6.4 0.00 0.00 0.00 58 1023.2
20260905080015 20 0.0 0.0 0.00 0.00 0.00 58 1023.2
20260905075015 21 145 1.6 6.4 0.00 0.00 0.00 58 1023.1
20260905074036 21 144 3.2 11.3 0.00 0.00 0.00 58 1023.1
20260905073016 20 142 0.0 4.8 0.00 0.00 0.00 58 1023.2
20260905072016 21 141 0.0 1.6 0.00 0.00 0.00 58 1023.3
20260905071017 21 137 1.6 6.4 0.00 0.00 0.00 58 1023.2
20260905070015 21 143 1.6 6.4 0.00 0.00 0.00 57 1023.3
20260905065015 21 145 0.0 3.2 0.00 0.00 0.00 56 1023.3
20260905064016 21 139 0.0 1.6 0.00 0.00 0.00 56 1023.4
20260905063016 21 144 1.6 6.4 0.00 0.00 0.00 56 1023.4
20260905062016 21 141 0.0 3.2 0.00 0.00 0.00 57 1023.4
20260905061019 21 161 0.0 3.2 0.00 0.00 0.00 56 1023.4
20260905060017 21 0.0 0.0 0.00 0.00 0.00 56 1023.3
20260905055015 21 0.0 0.0 0.00 0.00 0.00 55 1023.3
20260905054035 21 142 0.0 3.2 0.00 0.00 0.00 55 1023.2
20260905053015 21 139 1.6 6.4 0.00 0.00 0.00 54 1023.0
20260905052016 22 136 0.0 1.6 0.00 0.00 0.00 53 1023.1
20260905051016 22 152 0.0 3.2 0.00 0.00 0.00 51 1023.0
20260905050016 23 144 1.6 6.4 0.00 0.00 0.00 50 1023.0
20260905045037 23 143 0.0 3.2 0.00 0.00 0.00 48 1022.8
20260905044015 24 141 3.2 11.3 0.00 0.00 0.00 47 1022.8
20260905043015 24 136 4.8 14.5 0.00 0.00 0.00 46 1022.6
20260905042015 25 133 3.2 14.5 0.00 0.00 0.00 45 1022.6
20260905041056 25 133 4.8 20.9 0.00 0.00 0.00 43 1022.7
20260905040016 25 140 6.4 14.5 0.00 0.00 0.00 42 1022.6
20260905035017 25 132 4.8 12.9 0.00 0.00 0.00 42 1022.5
20260905034017 25 127 3.2 9.7 0.00 0.00 0.00 43 1022.5
20260905033035 25 125 3.2 6.4 0.00 0.00 0.00 43 1022.4
20260905032015 25 107 1.6 6.4 0.00 0.00 0.00 41 1022.4
20260905031016 25 123 3.2 6.4 0.00 0.00 0.00 40 1022.3
20260905030036 25 128 3.2 12.9 0.00 0.00 0.00 40 1022.2
20260905025016 25 114 1.6 4.8 0.00 0.00 0.00 41 1022.1
20260905024037 25 119 1.6 9.7 0.00 0.00 0.00 40 1022.0
20260905023015 25 110 3.2 12.9 0.00 0.00 0.00 38 1022.0
20260905022015 25 98 1.6 6.4 0.00 0.00 0.00 38 1021.8
20260905021015 26 115 1.6 6.4 0.00 0.00 0.00 38 1021.7
20260905020016 26 104 1.6 4.8 0.00 0.00 0.00 37 1021.6
20260905015016 26 115 3.2 6.4 0.00 0.00 0.00 36 1021.4
20260905014017 26 138 6.4 19.3 0.00 0.00 0.00 35 1021.6
20260905013017 26 134 4.8 12.9 0.00 0.00 0.00 36 1021.4
20260905012015 27 137 4.8 22.5 0.00 0.00 0.00 36 1021.5
20260905011015 28 120 3.2 9.7 0.00 0.00 0.00 32 1021.3
20260905010015 28 94 1.6 4.8 0.00 0.00 0.00 32 1021.1
20260905005016 28 89 1.6 4.8 0.00 0.00 0.00 31 1021.1
20260905004016 29 92 1.6 4.8 0.00 0.00 0.00 31 1021.1
20260905003017 30 91 1.6 4.8 0.00 0.00 0.00 30 1021.0
20260905002017 30 85 3.2 6.4 0.00 0.00 0.00 29 1021.0
20260905001015 30 93 3.2 6.4 0.00 0.00 0.00 29 1021.0
20260905000015 31 101 3.2 6.4 0.00 0.00 0.00 28 1020.9
20260904235016 31 111 1.6 4.8 0.00 0.00 0.00 27 1020.7
20260904234016 31 94 1.6 3.2 0.00 0.00 0.00 28 1020.6
20260904233016 31 90 1.6 4.8 0.00 0.00 0.00 27 1020.7
20260904232017 32 92 1.6 3.2 0.00 0.00 0.00 28 1020.7
20260904231037 32 85 0.0 1.6 0.00 0.00 0.00 27 1020.7